Retour au catalogue

CZ-6A DEB

ActifSSO
NORAD 54914·DEBRIS·🇨🇳 China

Lancé Nov 11, 2022 depuis Taiyuan Satellite Launch Center

Loading…

Prochains Passages (prochaines 24 heures)

TLE

FraisSource: Space-Track

Époque: Sep 14, 2026, 10:39 UTC

1 54914U 22151RB  26257.44402664  .00000091  00000-0  72340-4 0  9996
2 54914  98.8137 254.7544 0042038  92.5424 268.0561 14.12113053197315

Suivez CZ-6A DEB en temps réel avec AllMySat

Download on the App Store